Weather History for KBKD - April, 2014

Change the Weather History Date:

Tuesday, April 22, 2014

  Actual Average (KABI) Record (KABI)
Temperature  
Mean Temperature 72 °F 66 °F  
Max Temperature 86 °F 79 °F 97 °F (1955)
Min Temperature 57 °F 54 °F 33 °F (1927)
Degree Days  
Heating Degree Days 0 3  
Month to date heating degree days 97  
Since 1 July heating degree days 2528  
Cooling Degree Days 6 4  
Month to date cooling degree days 62  
Year to date cooling degree days 96  
Growing Degree Days 22 (Base 50)    
Moisture  
Dew Point 51 °F    
Average Humidity 56    
Maximum Humidity 98    
Minimum Humidity 21    
Precipitation  
Precipitation 0.00 in 0.06 in 1.33 in (1915)
Month to date precipitation 1.09  
Year to date precipitation 5.21  
Sea Level Pressure  
Sea Level Pressure 30.03 in    
Wind  
Wind Speed 4 mph (East)    
Max Wind Speed 13 mph    
Max Gust Speed 20 mph    
Visibility 10 miles    
Events      
T = Trace of Precipitation, MM = Missing Value Source: NWS Daily Summary

Daily Weather History Graph

Daily Weather History Graph

Search for Another Location

Airport or City:

Trip Planner

Search our weather history database for the weather conditions in past years. The results will help you decide how hot, cold, wet, or windy it might be!

Date:

Astronomy

Apr. 22, 2014 Rise Set
Actual Time 6:57 AM CDT 8:10 PM CDT
Civil Twilight 6:32 AM CDT 8:36 PM CDT
Nautical Twilight 6:01 AM CDT 9:07 PM CDT
Astronomical Twilight 5:30 AM CDT 9:38 PM CDT
Moon 2:25 AM CDT (4/22) 1:35 PM CDT (4/22)
Length of Visible Light 14h 04m
Length of Day
13h 12m
Last Quarter, 46% of the Moon is Illuminated
Apr 22
Last Quarter
Apr 29
New
May 6
First Quarter
May 14
Full
May 21
Last Quarter

Hourly Weather History & Observations

Time (CDT) Temp. Dew Point Humidity Pressure Visibility Wind Dir Wind Speed Gust Speed Precip Events Conditions
12:15 AM 66.0 °F 58.5 °F 77% 30.05 in 10.0 mi SE 3.5 mph - N/A   Clear
12:35 AM 64.9 °F 58.5 °F 79% 30.05 in 10.0 mi Calm Calm - N/A   Clear
12:55 AM 64.4 °F 58.6 °F 82% 30.05 in 10.0 mi Calm Calm - N/A   Clear
1:15 AM 65.3 °F 58.8 °F 80% 30.06 in 10.0 mi Calm Calm - N/A   Clear
1:35 AM 63.9 °F 59.5 °F 86% 30.05 in 10.0 mi NNW 3.5 mph - N/A   Clear
1:55 AM 62.6 °F 59.5 °F 90% 30.05 in 10.0 mi NNW 5.8 mph - N/A   Clear
2:15 AM 62.8 °F 60.1 °F 91% 30.05 in 10.0 mi North 3.5 mph - N/A   Clear
2:35 AM 64.4 °F 59.9 °F 85% 30.05 in 10.0 mi Calm Calm - N/A   Clear
2:55 AM 62.4 °F 60.1 °F 92% 30.05 in 10.0 mi Calm Calm - N/A   Clear
3:15 AM 63.1 °F 60.1 °F 90% 30.05 in 10.0 mi North 3.5 mph - N/A   Clear
3:35 AM 60.8 °F 59.4 °F 95% 30.05 in 10.0 mi Calm Calm - N/A   Clear
3:55 AM 61.2 °F 59.9 °F 96% 30.05 in 10.0 mi Calm Calm - N/A   Clear
4:15 AM 61.7 °F 60.1 °F 94% 30.05 in 10.0 mi Calm Calm - N/A   Clear
4:35 AM 61.3 °F 59.2 °F 93% 30.05 in 10.0 mi Calm Calm - N/A   Clear
4:55 AM 61.0 °F 59.2 °F 94% 30.05 in 10.0 mi Calm Calm - N/A   Clear
5:15 AM 58.8 °F 57.6 °F 96% 30.05 in 7.0 mi Calm Calm - N/A   Clear
5:35 AM 57.6 °F 56.7 °F 97% 30.05 in 10.0 mi Calm Calm - N/A   Clear
5:55 AM 57.9 °F 57.2 °F 97% 30.05 in 10.0 mi Calm Calm - N/A   Clear
6:15 AM 58.5 °F 57.9 °F 98% 30.05 in 10.0 mi Calm Calm - N/A   Clear
6:35 AM 57.7 °F 56.8 °F 97% 30.06 in 10.0 mi SW 3.5 mph - N/A   Clear
6:55 AM 57.4 °F 56.5 °F 97% 30.07 in 10.0 mi WSW 4.6 mph - N/A   Clear
7:15 AM 58.1 °F 57.4 °F 97% 30.08 in 10.0 mi Calm Calm - N/A   Clear
7:35 AM 57.7 °F 55.9 °F 94% 30.08 in 10.0 mi Calm Calm - N/A   Clear
7:55 AM 59.2 °F 57.6 °F 94% 30.09 in 10.0 mi Calm Calm - N/A   Clear
8:15 AM 61.0 °F 59.2 °F 94% 30.10 in 10.0 mi Calm Calm - N/A   Clear
8:35 AM 62.6 °F 59.5 °F 90% 30.10 in 10.0 mi Calm Calm - N/A   Clear
8:55 AM 65.1 °F 59.7 °F 83% 30.11 in 10.0 mi Calm Calm - N/A   Clear
9:15 AM 67.3 °F 58.1 °F 72% 30.11 in 10.0 mi NE 3.5 mph - N/A   Clear
9:35 AM 70.9 °F 57.6 °F 63% 30.10 in 10.0 mi ENE 6.9 mph - N/A   Clear
9:55 AM 73.4 °F 56.5 °F 55% 30.11 in 10.0 mi ENE 8.1 mph - N/A   Clear
10:15 AM 74.8 °F 55.4 °F 51% 30.11 in 10.0 mi ENE 9.2 mph - N/A   Clear
10:35 AM 76.3 °F 54.1 °F 46% 30.11 in 10.0 mi East 11.5 mph 19.6 mph N/A   Clear
10:55 AM 76.8 °F 52.3 °F 42% 30.11 in 10.0 mi East 10.4 mph - N/A   Clear
11:15 AM 77.9 °F 53.1 °F 42% 30.10 in 10.0 mi ENE 6.9 mph - N/A   Clear
11:35 AM 79.2 °F 50.9 °F 37% 30.10 in 10.0 mi East 5.8 mph - N/A   Clear
11:55 AM 78.8 °F 49.1 °F 35% 30.09 in 10.0 mi East 12.7 mph 19.6 mph N/A   Clear
12:15 PM 80.1 °F 50.4 °F 35% 30.09 in 10.0 mi East 6.9 mph - N/A   Clear
12:35 PM 81.1 °F 48.9 °F 32% 30.08 in 7.0 mi ENE 9.2 mph 17.3 mph N/A   Clear
12:55 PM 82.2 °F 47.3 °F 29% 30.07 in 10.0 mi ENE 5.8 mph - N/A   Clear
1:15 PM 82.2 °F 46.0 °F 28% 30.06 in 7.0 mi NNE 6.9 mph - N/A   Clear
1:35 PM 82.6 °F 47.7 °F 29% 30.05 in 10.0 mi ESE 10.4 mph 16.1 mph N/A   Clear
1:55 PM 83.5 °F 46.2 °F 27% 30.05 in 10.0 mi NE 9.2 mph - N/A   Clear
2:15 PM 83.5 °F 46.0 °F 27% 30.04 in 10.0 mi SE 6.9 mph 16.1 mph N/A   Clear
2:35 PM 84.4 °F 40.8 °F 21% 30.03 in 7.0 mi SE 6.9 mph 10.4 mph N/A   Clear
2:55 PM 84.9 °F 41.2 °F 21% 30.02 in 7.0 mi SE 11.5 mph 17.3 mph N/A   Clear
3:15 PM 85.5 °F 41.4 °F 21% 30.01 in 7.0 mi East 9.2 mph 17.3 mph N/A   Clear
3:35 PM 85.3 °F 44.6 °F 24% 30.00 in 5.0 mi ESE 10.4 mph 16.1 mph N/A   Haze
3:55 PM 86.0 °F 43.7 °F 23% 29.99 in 7.0 mi East 8.1 mph - N/A   Clear
4:15 PM 85.6 °F 44.4 °F 24% 29.98 in 7.0 mi ESE 3.5 mph - N/A   Clear
4:35 PM 85.8 °F 44.8 °F 24% 29.97 in 10.0 mi ENE 4.6 mph 16.1 mph N/A   Clear
4:55 PM 86.2 °F 45.5 °F 24% 29.97 in 10.0 mi East 8.1 mph 16.1 mph N/A   Clear
5:15 PM 85.5 °F 44.8 °F 24% 29.96 in 10.0 mi ESE 11.5 mph - N/A   Clear
5:35 PM 86.0 °F 43.5 °F 23% 29.95 in 10.0 mi ESE 12.7 mph - N/A   Clear
5:55 PM 85.3 °F 42.8 °F 22% 29.94 in 10.0 mi SE 9.2 mph - N/A   Clear
6:15 PM 84.9 °F 40.3 °F 21% 29.94 in 10.0 mi ESE 9.2 mph 16.1 mph N/A   Clear
6:35 PM 84.4 °F 43.3 °F 24% 29.93 in 10.0 mi ESE 5.8 mph 16.1 mph N/A   Clear
6:55 PM 84.0 °F 43.2 °F 24% 29.93 in 10.0 mi ESE 9.2 mph 17.3 mph N/A   Clear
7:15 PM 83.3 °F 42.1 °F 23% 29.92 in 10.0 mi ESE 5.8 mph - N/A   Clear
7:35 PM 82.0 °F 42.4 °F 25% 29.92 in 10.0 mi ESE 10.4 mph - N/A   Clear
7:55 PM 80.6 °F 43.5 °F 27% 29.93 in 7.0 mi ESE 6.9 mph - N/A   Clear
8:15 PM 78.4 °F 44.2 °F 30% 29.93 in 7.0 mi ESE 6.9 mph - N/A   Clear
8:35 PM 76.6 °F 44.2 °F 32% 29.93 in 10.0 mi ESE 6.9 mph - N/A   Clear
9:15 PM 73.9 °F 43.9 °F 34% 29.94 in 10.0 mi ESE 8.1 mph - N/A   Clear
9:35 PM 73.2 °F 44.2 °F 35% 29.94 in 10.0 mi ESE 6.9 mph - N/A   Clear
9:55 PM 72.3 °F 45.3 °F 38% 29.95 in 10.0 mi ESE 8.1 mph - N/A   Clear
10:15 PM 71.2 °F 45.7 °F 40% 29.95 in 10.0 mi SE 6.9 mph - N/A   Clear
10:35 PM 70.5 °F 46.4 °F 42% 29.96 in 10.0 mi SE 8.1 mph - N/A   Clear
10:55 PM 68.9 °F 47.3 °F 46% 29.96 in 10.0 mi SE 9.2 mph - N/A   Clear
11:15 PM 68.2 °F 47.7 °F 48% 29.96 in 10.0 mi SSE 8.1 mph - N/A   Clear
11:35 PM 68.4 °F 48.6 °F 49% 29.95 in 10.0 mi SSE 9.2 mph - N/A   Clear
11:55 PM 67.8 °F 49.3 °F 51% 29.95 in 10.0 mi SE 9.2 mph - N/A   Clear